| time (UTC) | temp F | wind direction | speed knots | gust knots | rain 1hr in | rain 24hr in | rain mn in | humidity % | barometer mb |
| 20260506080658 | 68 | 176 | 0.9 | 1.7 | 0.00 | 0.00 | 0.00 | 76 | 1013.0 |
| 20260506080159 | 68 | 181 | 0.9 | 1.7 | 0.00 | 0.00 | 0.00 | 76 | 1013.0 |
| 20260506073158 | 68 | 211 | 2.6 | 3.5 | 0.00 | 0.00 | 0.00 | 73 | 1013.0 |
| 20260506072657 | 69 | 165 | 0.9 | 1.7 | 0.00 | 0.00 | 0.00 | 73 | 1013.0 |
| 20260506072158 | 69 | 236 | 2.6 | 3.5 | 0.00 | 0.00 | 0.00 | 72 | 1013.0 |
| 20260506071657 | 69 | 259 | 1.7 | 3.5 | 0.00 | 0.00 | 0.00 | 72 | 1014.0 |
| 20260506071158 | 69 | 315 | 1.7 | 3.5 | 0.00 | 0.00 | 0.00 | 71 | 1014.0 |
| 20260506070659 | 69 | 294 | 1.7 | 5.2 | 0.00 | 0.00 | 0.00 | 70 | 1014.0 |
| 20260506070157 | 69 | 238 | 1.7 | 2.6 | 0.00 | 0.00 | 0.00 | 69 | 1014.0 |
| 20260506062157 | 70 | 183 | 1.7 | 4.3 | 0.00 | 0.00 | 0.00 | 64 | 1014.0 |
| 20260506061658 | 70 | 302 | 2.6 | 3.5 | 0.00 | 0.00 | 0.00 | 63 | 1014.0 |
| 20260506061158 | 71 | 253 | 2.6 | 4.3 | 0.00 | 0.00 | 0.00 | 62 | 1014.0 |
| 20260506060657 | 71 | 288 | 2.6 | 3.5 | 0.00 | 0.00 | 0.00 | 61 | 1014.0 |
| 20260506060158 | 71 | 337 | 0.9 | 1.7 | 0.00 | 0.00 | 0.00 | 60 | 1014.0 |
| 20260506051157 | 72 | 284 | 1.7 | 3.5 | 0.00 | 0.00 | 0.00 | 53 | 1014.0 |
| 20260506050657 | 72 | 248 | 1.7 | 2.6 | 0.00 | 0.00 | 0.00 | 52 | 1014.0 |
| 20260506050158 | 72 | 232 | 0.0 | 0.9 | 0.00 | 0.00 | 0.00 | 52 | 1014.0 |
| 20260506044658 | 72 | 253 | 0.9 | 0.9 | 0.00 | 0.00 | 0.00 | 50 | 1014.0 |
| 20260506044157 | 72 | 290 | 1.7 | 2.6 | 0.00 | 0.00 | 0.00 | 51 | 1014.0 |
| 20260506043657 | 72 | 200 | 0.9 | 1.7 | 0.00 | 0.00 | 0.00 | 51 | 1014.0 |
| 20260506043204 | 72 | 227 | 1.7 | 2.6 | 0.00 | 0.00 | 0.00 | 51 | 1014.0 |
| 20260506042657 | 72 | 294 | 1.7 | 2.6 | 0.00 | 0.00 | 0.00 | 51 | 1014.0 |
| 20260506042157 | 72 | 314 | 1.7 | 4.3 | 0.00 | 0.00 | 0.00 | 52 | 1014.0 |
| 20260506041657 | 72 | 229 | 1.7 | 1.7 | 0.00 | 0.00 | 0.00 | 52 | 1014.0 |
| 20260506041157 | 72 | 227 | 2.6 | 3.5 | 0.00 | 0.00 | 0.00 | 52 | 1014.0 |
| 20260506040657 | 72 | 260 | 0.9 | 1.7 | 0.00 | 0.00 | 0.00 | 52 | 1014.0 |
| 20260506040157 | 72 | 234 | 0.9 | 1.7 | 0.00 | 0.00 | 0.00 | 53 | 1014.0 |
| 20260506035657 | 71 | 273 | 1.7 | 3.5 | 0.00 | 0.00 | 0.00 | 53 | 1014.0 |
| 20260506035157 | 71 | 278 | 0.9 | 1.7 | 0.00 | 0.00 | 0.00 | 54 | 1014.0 |
| 20260506034657 | 71 | 241 | 1.7 | 2.6 | 0.00 | 0.00 | 0.00 | 54 | 1014.0 |
| 20260506034158 | 71 | 242 | 0.9 | 1.7 | 0.00 | 0.00 | 0.00 | 53 | 1014.0 |
| 20260506033658 | 71 | 262 | 1.7 | 1.7 | 0.00 | 0.00 | 0.00 | 53 | 1014.0 |
| 20260506033157 | 72 | 167 | 0.9 | 1.7 | 0.00 | 0.00 | 0.00 | 52 | 1014.0 |
| 20260506032700 | 72 | 120 | 0.9 | 2.6 | 0.00 | 0.00 | 0.00 | 51 | 1014.0 |
| 20260506032157 | 72 | 253 | 0.0 | 0.9 | 0.00 | 0.00 | 0.00 | 50 | 1014.0 |
| 20260506031657 | 72 | 154 | 0.0 | 1.7 | 0.00 | 0.00 | 0.00 | 49 | 1014.0 |
| 20260506031158 | 72 | 241 | 0.9 | 1.7 | 0.00 | 0.00 | 0.00 | 48 | 1014.0 |
| 20260506030658 | 72 | 298 | 1.7 | 3.5 | 0.00 | 0.00 | 0.00 | 48 | 1014.0 |
| 20260506030158 | 72 | 307 | 0.0 | 1.7 | 0.00 | 0.00 | 0.00 | 47 | 1014.0 |
| 20260506025658 | 72 | 285 | 2.6 | 4.3 | 0.00 | 0.00 | 0.00 | 46 | 1014.0 |
| 20260506025158 | 72 | 285 | 1.7 | 2.6 | 0.00 | 0.00 | 0.00 | 46 | 1014.0 |
| 20260506024657 | 72 | 270 | 0.9 | 1.7 | 0.00 | 0.00 | 0.00 | 45 | 1014.0 |
| 20260506024157 | 72 | 289 | 1.7 | 2.6 | 0.00 | 0.00 | 0.00 | 45 | 1014.0 |
| 20260506023657 | 72 | 213 | 1.7 | 1.7 | 0.00 | 0.00 | 0.00 | 46 | 1014.0 |
| 20260506023157 | 72 | 354 | 0.0 | 0.9 | 0.00 | 0.00 | 0.00 | 46 | 1014.0 |
| 20260506022658 | 72 | 224 | 0.9 | 1.7 | 0.00 | 0.00 | 0.00 | 46 | 1014.0 |
| 20260506022202 | 72 | 267 | 1.7 | 2.6 | 0.00 | 0.00 | 0.00 | 46 | 1014.0 |
| 20260506021658 | 72 | 284 | 1.7 | 2.6 | 0.00 | 0.00 | 0.00 | 46 | 1014.0 |
| 20260506021157 | 72 | 206 | 0.0 | 0.9 | 0.00 | 0.00 | 0.00 | 46 | 1014.0 |
| 20260506020657 | 72 | 132 | 0.9 | 1.7 | 0.00 | 0.00 | 0.00 | 46 | 1014.0 |
| 20260506020158 | 72 | 246 | 0.9 | 1.7 | 0.00 | 0.00 | 0.00 | 46 | 1014.0 |
| 20260506015657 | 72 | 305 | 0.9 | 1.7 | 0.00 | 0.00 | 0.00 | 45 | 1014.0 |
| 20260506015157 | 72 | 354 | 0.0 | 0.9 | 0.00 | 0.00 | 0.00 | 45 | 1014.0 |
| 20260506014658 | 72 | 234 | 1.7 | 1.7 | 0.00 | 0.00 | 0.00 | 45 | 1014.0 |
| 20260506014157 | 72 | 307 | 0.9 | 1.7 | 0.00 | 0.00 | 0.00 | 45 | 1014.0 |
| 20260506013657 | 72 | 298 | 1.7 | 2.6 | 0.00 | 0.00 | 0.00 | 45 | 1014.0 |
| 20260506013157 | 72 | 236 | 0.9 | 2.6 | 0.00 | 0.00 | 0.00 | 45 | 1014.0 |
| 20260506012657 | 73 | 215 | 0.9 | 1.7 | 0.00 | 0.00 | 0.00 | 45 | 1014.0 |
| 20260506012157 | 73 | 173 | 0.0 | 0.9 | 0.00 | 0.00 | 0.00 | 44 | 1014.0 |
| 20260506011657 | 73 | 230 | 0.9 | 1.7 | 0.00 | 0.00 | 0.00 | 44 | 1014.0 |
| 20260506011157 | 73 | 249 | 0.9 | 0.9 | 0.00 | 0.00 | 0.00 | 44 | 1014.0 |
| 20260506010657 | 73 | 272 | 1.7 | 2.6 | 0.00 | 0.00 | 0.00 | 44 | 1014.0 |
| 20260506010157 | 73 | 261 | 1.7 | 2.6 | 0.00 | 0.00 | 0.00 | 43 | 1014.0 |
| 20260506005657 | 74 | 274 | 0.9 | 1.7 | 0.00 | 0.00 | 0.00 | 43 | 1014.0 |
| 20260506005157 | 74 | 284 | 2.6 | 3.5 | 0.00 | 0.00 | 0.00 | 43 | 1014.0 |
| 20260506004657 | 74 | 247 | 0.0 | 0.9 | 0.00 | 0.00 | 0.00 | 43 | 1014.0 |
| 20260506004157 | 74 | 250 | 1.7 | 2.6 | 0.00 | 0.00 | 0.00 | 43 | 1014.0 |
| 20260506003658 | 74 | 302 | 0.9 | 1.7 | 0.00 | 0.00 | 0.00 | 43 | 1014.0 |
| 20260506003157 | 74 | 247 | 0.9 | 1.7 | 0.00 | 0.00 | 0.00 | 43 | 1014.0 |
| 20260506002657 | 75 | 284 | 2.6 | 4.3 | 0.00 | 0.00 | 0.00 | 43 | 1014.0 |
| 20260506002157 | 75 | 267 | 0.9 | 1.7 | 0.00 | 0.00 | 0.00 | 42 | 1014.0 |
| 20260506001657 | 75 | 202 | 0.0 | 0.9 | 0.00 | 0.00 | 0.00 | 42 | 1014.0 |
| 20260506001158 | 75 | 267 | 0.0 | 0.9 | 0.00 | 0.00 | 0.00 | 42 | 1014.0 |
| 20260506000657 | 75 | 286 | 0.9 | 1.7 | 0.00 | 0.00 | 0.00 | 41 | 1014.0 |
| 20260506000157 | 76 | 282 | 0.9 | 1.7 | 0.00 | 0.00 | 0.00 | 41 | 1014.0 |
| 20260505235657 | 76 | 282 | 1.7 | 2.6 | 0.00 | 0.00 | 0.00 | 40 | 1014.0 |
| 20260505235157 | 76 | 238 | 1.7 | 2.6 | 0.00 | 0.00 | 0.00 | 40 | 1014.0 |
| 20260505234657 | 76 | 239 | 1.7 | 3.5 | 0.00 | 0.00 | 0.00 | 40 | 1014.0 |
| 20260505234157 | 76 | 259 | 1.7 | 2.6 | 0.00 | 0.00 | 0.00 | 41 | 1014.0 |
| 20260505233657 | 77 | 235 | 2.6 | 3.5 | 0.00 | 0.00 | 0.00 | 41 | 1014.0 |
| 20260505233201 | 77 | 268 | 0.9 | 1.7 | 0.00 | 0.00 | 0.00 | 41 | 1014.0 |
| 20260505232658 | 76 | 257 | 0.9 | 1.7 | 0.00 | 0.00 | 0.00 | 41 | 1014.0 |
| 20260505232157 | 76 | 229 | 0.9 | 1.7 | 0.00 | 0.00 | 0.00 | 41 | 1014.0 |
| 20260505231657 | 76 | 245 | 1.7 | 1.7 | 0.00 | 0.00 | 0.00 | 42 | 1013.0 |
| 20260505231158 | 77 | 129 | 0.0 | 0.9 | 0.00 | 0.00 | 0.00 | 42 | 1013.0 |
| 20260505230657 | 77 | 210 | 0.9 | 1.7 | 0.00 | 0.00 | 0.00 | 42 | 1013.0 |
| 20260505230157 | 77 | 285 | 1.7 | 2.6 | 0.00 | 0.00 | 0.00 | 41 | 1013.0 |
| 20260505225657 | 77 | 295 | 1.7 | 3.5 | 0.00 | 0.00 | 0.00 | 41 | 1014.0 |
| 20260505225158 | 77 | 235 | 1.7 | 3.5 | 0.00 | 0.00 | 0.00 | 41 | 1014.0 |
| 20260505224657 | 77 | 298 | 0.9 | 1.7 | 0.00 | 0.00 | 0.00 | 42 | 1013.0 |
| 20260505224157 | 77 | 302 | 0.9 | 1.7 | 0.00 | 0.00 | 0.00 | 41 | 1013.0 |
| 20260505223657 | 77 | 253 | 1.7 | 2.6 | 0.00 | 0.00 | 0.00 | 41 | 1013.0 |
| 20260505223158 | 77 | 265 | 0.9 | 0.9 | 0.00 | 0.00 | 0.00 | 41 | 1013.0 |
| 20260505222657 | 77 | 274 | 0.9 | 2.6 | 0.00 | 0.00 | 0.00 | 41 | 1014.0 |
| 20260505222159 | 77 | 337 | 0.9 | 1.7 | 0.00 | 0.00 | 0.00 | 40 | 1013.0 |
| 20260505221657 | 77 | 261 | 2.6 | 4.3 | 0.00 | 0.00 | 0.00 | 41 | 1013.0 |
| 20260505221157 | 77 | 320 | 1.7 | 4.3 | 0.00 | 0.00 | 0.00 | 40 | 1013.0 |
| 20260505220657 | 77 | 309 | 1.7 | 3.5 | 0.00 | 0.00 | 0.00 | 40 | 1013.0 |
| 20260505220157 | 78 | 266 | 0.9 | 1.7 | 0.00 | 0.00 | 0.00 | 40 | 1013.0 |
| 20260505215658 | 78 | 225 | 1.7 | 3.5 | 0.00 | 0.00 | 0.00 | 39 | 1013.0 |
| 20260505215157 | 78 | 274 | 3.5 | 4.3 | 0.00 | 0.00 | 0.00 | 39 | 1013.0 |
| 20260505214657 | 78 | 296 | 0.9 | 1.7 | 0.00 | 0.00 | 0.00 | 40 | 1014.0 |
| 20260505214157 | 78 | 258 | 2.6 | 3.5 | 0.00 | 0.00 | 0.00 | 40 | 1013.0 |
| 20260505213658 | 78 | 174 | 0.0 | 0.9 | 0.00 | 0.00 | 0.00 | 41 | 1013.0 |
| 20260505213157 | 78 | 198 | 1.7 | 2.6 | 0.00 | 0.00 | 0.00 | 41 | 1014.0 |
| 20260505212658 | 77 | 292 | 2.6 | 6.1 | 0.00 | 0.00 | 0.00 | 40 | 1014.0 |
| 20260505212157 | 78 | 200 | 1.7 | 4.3 | 0.00 | 0.00 | 0.00 | 39 | 1014.0 |
| 20260505211659 | 78 | 293 | 0.9 | 1.7 | 0.00 | 0.00 | 0.00 | 39 | 1014.0 |
| 20260505211157 | 78 | 287 | 3.5 | 5.2 | 0.00 | 0.00 | 0.00 | 39 | 1014.0 |
| 20260505210658 | 78 | 297 | 3.5 | 6.1 | 0.00 | 0.00 | 0.00 | 39 | 1014.0 |
| 20260505210157 | 78 | 225 | 2.6 | 3.5 | 0.00 | 0.00 | 0.00 | 40 | 1014.0 |
| 20260505205657 | 77 | 215 | 0.9 | 3.5 | 0.00 | 0.00 | 0.00 | 42 | 1014.0 |
| 20260505205157 | 78 | 284 | 1.7 | 3.5 | 0.00 | 0.00 | 0.00 | 40 | 1014.0 |
| 20260505204658 | 78 | 301 | 2.6 | 5.2 | 0.00 | 0.00 | 0.00 | 40 | 1014.0 |
| 20260505204157 | 77 | 220 | 0.9 | 1.7 | 0.00 | 0.00 | 0.00 | 40 | 1014.0 |
| 20260505203211 | 77 | 281 | 3.5 | 5.2 | 0.00 | 0.00 | 0.00 | 40 | 1014.0 |
| 20260505202658 | 77 | 299 | 2.6 | 3.5 | 0.00 | 0.00 | 0.00 | 42 | 1014.0 |
| 20260505202158 | 77 | 277 | 1.7 | 2.6 | 0.00 | 0.00 | 0.00 | 41 | 1014.0 |
| 20260505201658 | 77 | 202 | 1.7 | 3.5 | 0.00 | 0.00 | 0.00 | 41 | 1014.0 |
| 20260505201157 | 77 | 271 | 1.7 | 5.2 | 0.00 | 0.00 | 0.00 | 40 | 1014.0 |
| 20260505200658 | 77 | 50 | 0.9 | 1.7 | 0.00 | 0.00 | 0.00 | 40 | 1014.0 |
| 20260505200157 | 77 | 199 | 2.6 | 4.3 | 0.00 | 0.00 | 0.00 | 41 | 1014.0 |
| 20260505195657 | 77 | 280 | 2.6 | 3.5 | 0.00 | 0.00 | 0.00 | 41 | 1014.0 |
| 20260505195157 | 76 | 254 | 2.6 | 3.5 | 0.00 | 0.00 | 0.00 | 42 | 1015.0 |
| 20260505194657 | 76 | 211 | 2.6 | 4.3 | 0.00 | 0.00 | 0.00 | 42 | 1015.0 |
| 20260505194157 | 76 | 316 | 2.6 | 3.5 | 0.00 | 0.00 | 0.00 | 41 | 1015.0 |
| 20260505193657 | 76 | 233 | 3.5 | 5.2 | 0.00 | 0.00 | 0.00 | 41 | 1015.0 |
| 20260505193157 | 76 | 192 | 1.7 | 2.6 | 0.00 | 0.00 | 0.00 | 41 | 1015.0 |
| 20260505192658 | 76 | 294 | 3.5 | 6.1 | 0.00 | 0.00 | 0.00 | 41 | 1015.0 |
| 20260505192157 | 76 | 242 | 2.6 | 3.5 | 0.00 | 0.00 | 0.00 | 40 | 1015.0 |
| 20260505191658 | 76 | 237 | 3.5 | 5.2 | 0.00 | 0.00 | 0.00 | 42 | 1015.0 |
| 20260505191159 | 76 | 208 | 2.6 | 3.5 | 0.00 | 0.00 | 0.00 | 43 | 1015.0 |
| 20260505190657 | 75 | 266 | 1.7 | 4.3 | 0.00 | 0.00 | 0.00 | 41 | 1015.0 |
| 20260505190158 | 75 | 205 | 1.7 | 2.6 | 0.00 | 0.00 | 0.00 | 44 | 1015.0 |
| 20260505185658 | 75 | 268 | 1.7 | 2.6 | 0.00 | 0.00 | 0.00 | 42 | 1015.0 |
| 20260505185158 | 75 | 233 | 3.5 | 4.3 | 0.00 | 0.00 | 0.00 | 42 | 1015.0 |
| 20260505184658 | 75 | 319 | 0.9 | 1.7 | 0.00 | 0.00 | 0.00 | 42 | 1015.0 |
| 20260505184158 | 75 | 227 | 1.7 | 3.5 | 0.00 | 0.00 | 0.00 | 42 | 1015.0 |
| 20260505183657 | 75 | 268 | 1.7 | 3.5 | 0.00 | 0.00 | 0.00 | 43 | 1015.0 |
| 20260505183157 | 75 | 303 | 3.5 | 6.1 | 0.00 | 0.00 | 0.00 | 43 | 1015.0 |
| 20260505182658 | 74 | 299 | 3.5 | 7.0 | 0.00 | 0.00 | 0.00 | 44 | 1015.0 |
| 20260505182159 | 74 | 216 | 2.6 | 3.5 | 0.00 | 0.00 | 0.00 | 44 | 1015.0 |
| 20260505181657 | 74 | 268 | 2.6 | 3.5 | 0.00 | 0.00 | 0.00 | 45 | 1015.0 |
| 20260505181159 | 74 | 263 | 2.6 | 5.2 | 0.00 | 0.00 | 0.00 | 44 | 1016.0 |
| 20260505180657 | 74 | 120 | 0.9 | 2.6 | 0.00 | 0.00 | 0.00 | 45 | 1016.0 |
| 20260505180158 | 74 | 235 | 2.6 | 4.3 | 0.00 | 0.00 | 0.00 | 43 | 1016.0 |
| 20260505175658 | 74 | 212 | 1.7 | 6.1 | 0.00 | 0.00 | 0.00 | 46 | 1016.0 |
| 20260505175158 | 74 | 275 | 1.7 | 2.6 | 0.00 | 0.00 | 0.00 | 46 | 1016.0 |
| 20260505174658 | 74 | 189 | 1.7 | 3.5 | 0.00 | 0.00 | 0.00 | 45 | 1016.0 |
| 20260505174157 | 73 | 267 | 3.5 | 3.5 | 0.00 | 0.00 | 0.00 | 45 | 1016.0 |
| 20260505173657 | 73 | 257 | 2.6 | 4.3 | 0.00 | 0.00 | 0.00 | 45 | 1016.0 |
| 20260505173157 | 73 | 306 | 2.6 | 3.5 | 0.00 | 0.00 | 0.00 | 45 | 1016.0 |
| 20260505172657 | 73 | 266 | 2.6 | 3.5 | 0.00 | 0.00 | 0.00 | 45 | 1016.0 |
| 20260505172157 | 73 | 289 | 4.3 | 7.0 | 0.00 | 0.00 | 0.00 | 44 | 1016.0 |
| 20260505171658 | 73 | 286 | 5.2 | 8.7 | 0.00 | 0.00 | 0.00 | 43 | 1016.0 |
| 20260505171157 | 73 | 255 | 4.3 | 6.1 | 0.00 | 0.00 | 0.00 | 46 | 1016.0 |
| 20260505170657 | 74 | 313 | 3.5 | 7.8 | 0.00 | 0.00 | 0.00 | 46 | 1016.0 |
| 20260505170157 | 74 | 234 | 2.6 | 3.5 | 0.00 | 0.00 | 0.00 | 46 | 1016.0 |
| 20260505165657 | 74 | 254 | 3.5 | 5.2 | 0.00 | 0.00 | 0.00 | 45 | 1016.0 |
| 20260505165158 | 74 | 267 | 1.7 | 2.6 | 0.00 | 0.00 | 0.00 | 47 | 1016.0 |
| 20260505164657 | 74 | 285 | 3.5 | 6.1 | 0.00 | 0.00 | 0.00 | 46 | 1016.0 |
| 20260505164158 | 74 | 156 | 1.7 | 3.5 | 0.00 | 0.00 | 0.00 | 46 | 1016.0 |
| 20260505163658 | 74 | 218 | 2.6 | 4.3 | 0.00 | 0.00 | 0.00 | 47 | 1016.0 |
| 20260505163158 | 74 | 296 | 2.6 | 5.2 | 0.00 | 0.00 | 0.00 | 47 | 1016.0 |
| 20260505162657 | 73 | 311 | 2.6 | 4.3 | 0.00 | 0.00 | 0.00 | 48 | 1016.0 |
| 20260505162206 | 73 | 223 | 2.6 | 6.1 | 0.00 | 0.00 | 0.00 | 48 | 1016.0 |
| 20260505161658 | 73 | 306 | 3.5 | 7.0 | 0.00 | 0.00 | 0.00 | 47 | 1016.0 |
| 20260505161158 | 73 | 276 | 2.6 | 4.3 | 0.00 | 0.00 | 0.00 | 47 | 1016.0 |
| 20260505160658 | 73 | 315 | 2.6 | 5.2 | 0.00 | 0.00 | 0.00 | 48 | 1016.0 |
| 20260505160158 | 72 | 249 | 3.5 | 5.2 | 0.00 | 0.00 | 0.00 | 47 | 1016.0 |
| 20260505153157 | 73 | 273 | 1.7 | 3.5 | 0.00 | 0.00 | 0.00 | 49 | 1016.0 |
| 20260505152700 | 73 | 257 | 5.2 | 6.1 | 0.00 | 0.00 | 0.00 | 48 | 1016.0 |
| 20260505152159 | 73 | 3 | 0.9 | 1.7 | 0.00 | 0.00 | 0.00 | 49 | 1016.0 |
| 20260505151658 | 73 | 184 | 0.9 | 0.9 | 0.00 | 0.00 | 0.00 | 48 | 1016.0 |
| 20260505151157 | 73 | 276 | 1.7 | 3.5 | 0.00 | 0.00 | 0.00 | 51 | 1016.0 |
| 20260505150658 | 73 | 226 | 1.7 | 1.7 | 0.00 | 0.00 | 0.00 | 53 | 1017.0 |
| 20260505150157 | 72 | 337 | 0.0 | 1.7 | 0.00 | 0.00 | 0.00 | 54 | 1017.0 |
| 20260505140157 | 66 | 17 | 0.9 | 1.7 | 0.00 | 0.00 | 0.00 | 66 | 1016.0 |
| 20260505130157 | 60 | 331 | 0.9 | 1.7 | 0.00 | 0.00 | 0.00 | 71 | 1016.0 |
| 20260505124657 | 58 | 118 | 0.0 | 1.7 | 0.00 | 0.00 | 0.00 | 76 | 1016.0 |
| 20260505124157 | 58 | 110 | 0.9 | 1.7 | 0.00 | 0.00 | 0.00 | 77 | 1016.0 |
| 20260505123657 | 58 | 336 | 0.0 | 1.7 | 0.00 | 0.00 | 0.00 | 76 | 1016.0 |
| 20260505123157 | 58 | 121 | 0.0 | 0.9 | 0.00 | 0.00 | 0.00 | 76 | 1016.0 |
| 20260505122658 | 58 | 221 | 0.0 | 0.9 | 0.00 | 0.00 | 0.00 | 76 | 1016.0 |
| 20260505122157 | 58 | 220 | 0.9 | 1.7 | 0.00 | 0.00 | 0.00 | 76 | 1016.0 |
| 20260505121658 | 57 | 252 | 0.0 | 0.9 | 0.00 | 0.00 | 0.00 | 78 | 1016.0 |
| 20260505121158 | 57 | 240 | 1.7 | 3.5 | 0.00 | 0.00 | 0.00 | 77 | 1016.0 |
| 20260505120658 | 57 | 260 | 1.7 | 1.7 | 0.00 | 0.00 | 0.00 | 77 | 1016.0 |
| 20260505120158 | 56 | 240 | 1.7 | 2.6 | 0.00 | 0.00 | 0.00 | 77 | 1016.0 |
| 20260505115658 | 56 | 260 | 1.7 | 2.6 | 0.00 | 0.00 | 0.00 | 77 | 1016.0 |
| 20260505115157 | 56 | 262 | 1.7 | 3.5 | 0.00 | 0.00 | 0.00 | 78 | 1016.0 |
| 20260505114657 | 55 | 275 | 0.9 | 1.7 | 0.00 | 0.00 | 0.00 | 79 | 1016.0 |
| 20260505114157 | 55 | 237 | 1.7 | 3.5 | 0.00 | 0.00 | 0.00 | 79 | 1015.0 |
| 20260505113658 | 55 | 256 | 0.9 | 2.6 | 0.00 | 0.00 | 0.00 | 80 | 1015.0 |
| 20260505113157 | 55 | 72 | 0.9 | 1.7 | 0.00 | 0.00 | 0.00 | 80 | 1015.0 |
| 20260505112658 | 55 | 151 | 1.7 | 2.6 | 0.00 | 0.00 | 0.00 | 80 | 1015.0 |
| 20260505112157 | 54 | 212 | 0.9 | 1.7 | 0.00 | 0.00 | 0.00 | 79 | 1015.0 |
| 20260505111657 | 54 | 227 | 1.7 | 3.5 | 0.00 | 0.00 | 0.00 | 79 | 1015.0 |
| 20260505111158 | 54 | 229 | 1.7 | 3.5 | 0.00 | 0.00 | 0.00 | 79 | 1015.0 |
| 20260505110657 | 54 | 232 | 1.7 | 3.5 | 0.00 | 0.00 | 0.00 | 79 | 1015.0 |
| 20260505110157 | 54 | 216 | 0.9 | 2.6 | 0.00 | 0.00 | 0.00 | 78 | 1015.0 |
| 20260505102159 | 55 | 269 | 1.7 | 4.3 | 0.00 | 0.00 | 0.00 | 76 | 1015.0 |
| 20260505101659 | 55 | 227 | 0.9 | 2.6 | 0.00 | 0.00 | 0.00 | 76 | 1015.0 |
| 20260505101159 | 55 | 121 | 0.9 | 2.6 | 0.00 | 0.00 | 0.00 | 75 | 1015.0 |
| 20260505100700 | 55 | 229 | 1.7 | 2.6 | 0.00 | 0.00 | 0.00 | 76 | 1015.0 |
| 20260505100159 | 55 | 164 | 0.9 | 2.6 | 0.00 | 0.00 | 0.00 | 76 | 1015.0 |
| 20260505095658 | 56 | 88 | 0.9 | 1.7 | 0.00 | 0.00 | 0.00 | 75 | 1015.0 |
| 20260505095159 | 56 | 238 | 0.9 | 1.7 | 0.00 | 0.00 | 0.00 | 72 | 1015.0 |
| 20260505094659 | 56 | 68 | 0.0 | 1.7 | 0.00 | 0.00 | 0.00 | 71 | 1015.0 |
| 20260505094159 | 57 | 211 | 0.0 | 0.9 | 0.00 | 0.00 | 0.00 | 71 | 1015.0 |
| 20260505093658 | 57 | 235 | 0.0 | 1.7 | 0.00 | 0.00 | 0.00 | 69 | 1015.0 |
| 20260505093158 | 57 | 198 | 0.0 | 0.9 | 0.00 | 0.00 | 0.00 | 69 | 1015.0 |
| 20260505092659 | 57 | 222 | 0.9 | 2.6 | 0.00 | 0.00 | 0.00 | 68 | 1015.0 |
| 20260505092159 | 58 | 237 | 0.9 | 2.6 | 0.00 | 0.00 | 0.00 | 68 | 1015.0 |
| 20260505091703 | 58 | 211 | 0.0 | 0.9 | 0.00 | 0.00 | 0.00 | 66 | 1015.0 |
| 20260505091157 | 58 | 202 | 0.9 | 0.9 | 0.00 | 0.00 | 0.00 | 65 | 1015.0 |
| 20260505090659 | 58 | 221 | 1.7 | 2.6 | 0.00 | 0.00 | 0.00 | 65 | 1015.0 |
| 20260505090159 | 58 | 216 | 0.9 | 1.7 | 0.00 | 0.00 | 0.00 | 65 | 1015.0 |
| 20260505085659 | 58 | 207 | 0.0 | 1.7 | 0.00 | 0.00 | 0.00 | 65 | 1015.0 |
| 20260505085159 | 58 | 222 | 0.9 | 2.6 | 0.00 | 0.00 | 0.00 | 65 | 1015.0 |
| 20260505084659 | 57 | 209 | 0.9 | 1.7 | 0.00 | 0.00 | 0.00 | 67 | 1015.0 |
| 20260505084158 | 57 | 204 | 0.9 | 0.9 | 0.00 | 0.00 | 0.00 | 68 | 1015.0 |
| 20260505083657 | 57 | 216 | 0.0 | 0.9 | 0.00 | 0.00 | 0.00 | 68 | 1015.0 |
| 20260505083158 | 56 | 160 | 0.0 | 0.9 | 0.00 | 0.00 | 0.00 | 71 | 1015.0 |
| 20260505082657 | 56 | 188 | 0.0 | 0.9 | 0.00 | 0.00 | 0.00 | 72 | 1015.0 |
| 20260505082159 | 55 | 289 | 0.9 | 1.7 | 0.00 | 0.00 | 0.00 | 77 | 1015.0 |
| 20260505081700 | 55 | 0 | 0.0 | 0.0 | 0.00 | 0.00 | 0.00 | 75 | 1015.0 |
| 20260505081200 | 55 | 226 | 0.0 | 2.6 | 0.00 | 0.00 | 0.00 | 76 | 1015.0 |